Location: Ku?niki
(51.4449°N, 17.8974°E)
Time: 16:10:47
(UTC+00:00)

ARGOS - Pass Details

Date: 18 September 2020
Orbit: 821 x 834 km, 98.4° (Epoch: 22 October)

Event Time Altitude Azimuth Distance (km) Brightness Sun altitude
Rises 17:34:14 0° 153° (SSE) 3,344 5.9 -6.9°
Reaches altitude 10° 17:36:35 10° 150° (SSE) 2,416 5.2 -7.2°
Maximum altitude 17:41:52 64° 70° (ENE) 910 3.2 -8.0°
Drops below altitude 10° 17:47:12 10° 350° (N) 2,439 5.9 -8.9°
Sets 17:49:34 0° 348° (NNW) 3,378 6.7 -9.2°
